Location: Dumbr?vi?a
(45.8833°N, 22.7000°E)
Time: 16:07:32
(UTC+00:00)

COSMOS 2428 - Pass Details

Date: 03 March 2021
Orbit: 846 x 857 km, 70.9° (Epoch: 12 April)

Event Time Altitude Azimuth Distance (km) Brightness Sun altitude
Rises 17:34:26 0° 166° (SSE) 3,391 5.7 -14.0°
Reaches altitude 10° 17:37:18 10° 153° (SSE) 2,461 4.8 -14.5°
Maximum altitude 17:41:42 24° 102° (ESE) 1,695 3.7 -15.2°
Enters shadow 17:42:25 23° 90° (E) 1,722 3.7 -15.4°
